Flag for Turkey Weather past 2 weeks in Mersin, Turkey

Now
55 °F

Passing clouds.


Feels Like: 53 °F
Forecast: 43 / 60 °F
Wind: 9 mph from Northeast

Location: Adana / Sakirpasa

Current Time: Mar 4, 2015 at 9:22:31 PM

Latest Report: Mar 4, 2015 at 8:50 PM


Visibility: N/A

Pressure: 30.09 "Hg

Humidity: 31%

Dew point: 25 °F

Location of MersinLocation

Historic Weather in Mersin — Graph

°F

Mersin temperature yesterday

Maximum temperature yesterday: 66 °F (at 12:50 PM)
Minimum temperature yesterday: 50 °F (at 11:50 PM)
Average temperature yesterday: 57 °F

Past Weeks' High & Low Weather Summary

 TemperatureHumidityPressure
High73 °F (Feb 27, 1:50 PM)94% (Mar 1, 3:20 AM)30.27 "Hg (Mar 1, 3:20 AM)
Low37 °F (Feb 22, 3:20 AM)14% (Mar 4, 1:20 PM)29.59 "Hg (Feb 20, 11:50 AM)
Average54 °F60%29.98 "Hg
* Reported Feb 17 7:20 PM — Mar 4 7:50 PM, Mersin, Weather by CustomWeather, © 2015

Note: Actual official high and low records may vary slightly from our data, if they occured in-between our weather recording intervals... More about our weather records

Advertising

Mersin weather history for previous 24 hours

 ConditionsComfort  
Time TempWeatherWind HumidityBarometerVisibility
7:50 PM
Wed, Mar 4
57 °FPassing clouds.13 mph29%30.07 "HgN/A
7:20 PM59 °FPassing clouds.12 mph25%30.07 "HgN/A
6:50 PM59 °FPassing clouds.13 mph25%30.07 "HgN/A
6:20 PM61 °FPassing clouds.13 mph23%30.07 "HgN/A
5:50 PM61 °FPassing clouds.14 mph23%30.04 "HgN/A
5:20 PM61 °FScattered clouds.15 mph23%30.04 "HgN/A
4:50 PM63 °FScattered clouds.15 mph20%30.04 "HgN/A
4:20 PM63 °FScattered clouds.16 mph20%30.01 "HgN/A
3:50 PM64 °FScattered clouds.18 mph21%30.01 "HgN/A
3:20 PM66 °FScattered clouds.18 mph19%30.01 "HgN/A
2:50 PM66 °FScattered clouds.20 mph19%30.01 "HgN/A
2:20 PM66 °FPassing clouds.16 mph18%30.01 "HgN/A
1:50 PM66 °FPassing clouds.17 mph17%30.01 "HgN/A
1:20 PM68 °FPassing clouds.17 mph14%30.01 "HgN/A
12:50 PM68 °FPassing clouds.20 mph16%30.01 "HgN/A
12:20 PM68 °FPassing clouds.18 mph16%30.04 "HgN/A
11:50 AM68 °FPassing clouds.18 mph20%30.04 "HgN/A
11:20 AM66 °FPassing clouds.17 mph21%30.04 "HgN/A
10:50 AM66 °FPassing clouds.10 mph28%30.04 "HgN/A
10:20 AM64 °FPassing clouds.5 mph43%30.07 "HgN/A
9:50 AM63 °FPassing clouds.6 mph45%30.07 "HgN/A
9:20 AM61 °FPassing clouds.5 mph52%30.07 "HgN/A
8:50 AM59 °FPassing clouds.5 mph59%30.07 "HgN/A
8:20 AM57 °FPassing clouds.6 mph67%30.07 "HgN/A
7:50 AM55 °FPassing clouds.3 mph72%30.04 "HgN/A
7:20 AM54 °FPassing clouds.5 mph77%30.04 "HgN/A
6:50 AM48 °FPassing clouds.5 mph87%30.01 "HgN/A
6:20 AM46 °FPassing clouds.No wind87%30.01 "HgN/A
5:50 AM45 °FPassing clouds.3 mph87%30.01 "HgN/A
4:50 AM46 °FPassing clouds.5 mph82%29.98 "HgN/A
4:20 AM48 °FPassing clouds.6 mph82%29.98 "HgN/A
3:50 AM48 °FPassing clouds.6 mph82%29.98 "HgN/A
3:20 AM50 °FPassing clouds.6 mph82%29.98 "HgN/A
2:50 AM50 °FPassing clouds.7 mph82%29.98 "HgN/A
2:20 AM50 °FPassing clouds.9 mph82%29.98 "HgN/A
1:50 AM50 °FPassing clouds.9 mph82%29.98 "HgN/A
1:20 AM48 °FPassing clouds.9 mph87%29.98 "HgN/A
12:50 AM50 °FPassing clouds.9 mph82%30.01 "HgN/A
12:20 AM50 °FPassing clouds.9 mph82%29.98 "HgN/A
11:50 PM
Tue, Mar 3
50 °FPassing clouds.10 mph82%29.98 "HgN/A
11:20 PM52 °FPassing clouds.10 mph82%30.01 "HgN/A
10:50 PM54 °FPassing clouds.9 mph82%30.01 "HgN/A
10:20 PM54 °FPartly cloudy.9 mph82%30.01 "HgN/A
9:20 PM55 °FFog.9 mph82%29.98 "Hg2 mi
Weather by CustomWeather, © 2015

See weather overviewHow to use our weather pages